, CO

(GMT )
Cottonwood Pass

Weather History for K7BM - September, 2013

Change the Weather History Date:

Saturday, September 7, 2013

  Actual Average Record
Temperature  
Mean Temperature 70 °F -  
Max Temperature 80 °F - - ()
Min Temperature 59 °F - - ()
Cooling Degree Days 4    
Growing Degree Days 20 (Base 50)    
Moisture  
Dew Point 32 °F    
Average Humidity 29    
Maximum Humidity 45    
Minimum Humidity 10    
Precipitation  
Precipitation 0.00 in - - ()
Sea Level Pressure  
Sea Level Pressure 30.51 in    
Wind  
Wind Speed 4 mph (South)    
Max Wind Speed 16 mph    
Max Gust Speed 25 mph    
Visibility 10 miles    
Events Thunderstorm    
T = Trace of Precipitation, MM = Missing Value Source: NWS Daily Summary

Daily Weather History Graph

Daily Weather History Graph

Search for Another Location

Airport or City:

Trip Planner

Search our weather history database for the weather conditions in past years. The results will help you decide how hot, cold, wet, or windy it might be!

Date:

Astronomy

Sep. 07, 2013 Rise Set
Actual Time 6:39 AM MDT 7:25 PM MDT
Civil Twilight 6:12 AM MDT 7:52 PM MDT
Nautical Twilight 5:40 AM MDT 8:24 PM MDT
Astronomical Twilight 5:07 AM MDT 8:56 PM MDT
Moon 8:54 AM MDT (9/7) 8:27 PM MDT (9/7)
Length of Visible Light 13h 39m
Length of Day
12h 45m
Waxing Crescent, 5% of the Moon is Illuminated
Sep 7
Waxing Crescent
Sep 12
First Quarter
Sep 19
Full
Sep 26
Last Quarter
Oct 4
New

Hourly Weather History & Observations

Time (MDT) Temp. Dew Point Humidity Pressure Visibility Wind Dir Wind Speed Gust Speed Precip Events Conditions
12:15 AM 64.4 °F 32.0 °F 30% 30.55 in 10.0 mi Calm Calm - N/A   Scattered Clouds
12:35 AM 62.6 °F 35.6 °F 37% 30.55 in 10.0 mi South 4.6 mph - N/A   Clear
12:55 AM 62.6 °F 35.6 °F 37% 30.55 in 10.0 mi Calm Calm - N/A   Clear
1:15 AM 62.6 °F 33.8 °F 34% 30.55 in 10.0 mi SSE 3.5 mph - N/A   Clear
1:35 AM 62.6 °F 35.6 °F 37% 30.56 in 10.0 mi Calm Calm - N/A   Clear
1:55 AM 62.6 °F 35.6 °F 37% 30.56 in 10.0 mi West 3.5 mph - N/A   Clear
2:15 AM 60.8 °F 35.6 °F 39% 30.55 in 10.0 mi West 5.8 mph - N/A   Clear
2:34 AM 60.8 °F 35.6 °F 39% 30.54 in 10.0 mi West 3.5 mph - N/A   Clear
2:55 AM 62.6 °F 33.8 °F 34% 30.54 in 10.0 mi Calm Calm - N/A   Scattered Clouds
3:15 AM 62.6 °F 33.8 °F 34% 30.54 in 10.0 mi West 5.8 mph - N/A   Scattered Clouds
3:35 AM 60.8 °F 35.6 °F 39% 30.53 in 10.0 mi Calm Calm - N/A   Clear
3:55 AM 60.8 °F 33.8 °F 36% 30.54 in 10.0 mi Calm Calm - N/A   Clear
4:15 AM 60.8 °F 35.6 °F 39% 30.54 in 10.0 mi East 3.5 mph - N/A   Clear
4:35 AM 59.0 °F 37.4 °F 45% 30.54 in 10.0 mi Calm Calm - N/A   Clear
4:55 AM 60.8 °F 35.6 °F 39% 30.53 in 10.0 mi Calm Calm - N/A   Clear
5:15 AM 60.8 °F 33.8 °F 36% 30.53 in 10.0 mi West 5.8 mph - N/A   Clear
5:35 AM 59.0 °F 33.8 °F 39% 30.53 in 10.0 mi West 5.8 mph - N/A   Clear
5:55 AM 59.0 °F 33.8 °F 39% 30.53 in 10.0 mi West 4.6 mph - N/A   Clear
6:14 AM 59.0 °F 33.8 °F 39% 30.54 in 10.0 mi Calm Calm - N/A   Clear
6:35 AM 59.0 °F 35.6 °F 42% 30.54 in 10.0 mi West 3.5 mph - N/A   Clear
6:55 AM 59.0 °F 33.8 °F 39% 30.54 in 10.0 mi West 5.8 mph - N/A   Clear
7:15 AM 59.0 °F 33.8 °F 39% 30.55 in 10.0 mi West 6.9 mph - N/A   Clear
7:35 AM 59.0 °F 33.8 °F 39% 30.54 in 10.0 mi West 6.9 mph - N/A   Clear
7:55 AM 59.0 °F 33.8 °F 39% 30.54 in 10.0 mi West 6.9 mph - N/A   Clear
8:15 AM 60.8 °F 37.4 °F 42% 30.54 in 10.0 mi Calm Calm - N/A   Clear
8:35 AM 60.8 °F 35.6 °F 39% 30.54 in 10.0 mi Calm Calm - N/A   Clear
8:55 AM 60.8 °F 37.4 °F 42% 30.54 in 10.0 mi Calm Calm - N/A   Clear
9:14 AM 62.6 °F 37.4 °F 39% 30.54 in 10.0 mi Calm Calm - N/A   Clear
9:35 AM 64.4 °F 37.4 °F 37% 30.55 in 10.0 mi Calm Calm - N/A   Clear
9:54 AM 64.4 °F 37.4 °F 37% 30.55 in 10.0 mi SE 3.5 mph - N/A   Clear
10:15 AM 68.0 °F 37.4 °F 33% 30.55 in 10.0 mi Calm Calm - N/A   Clear
10:35 AM 68.0 °F 37.4 °F 33% 30.55 in 10.0 mi ESE 4.6 mph - N/A   Clear
10:54 AM 69.8 °F 37.4 °F 31% 30.55 in 10.0 mi SE 4.6 mph - N/A   Clear
11:14 AM 71.6 °F 35.6 °F 27% 30.55 in 10.0 mi Calm Calm - N/A   Clear
11:35 AM 71.6 °F 33.8 °F 25% 30.55 in 10.0 mi ESE 5.8 mph - N/A   Clear
11:55 AM 73.4 °F 33.8 °F 23% 30.54 in 10.0 mi SE 5.8 mph - N/A   Clear
12:15 PM 73.4 °F 32.0 °F 22% 30.53 in 10.0 mi Calm Calm - N/A   Clear
12:35 PM 77.0 °F 32.0 °F 19% 30.52 in 10.0 mi SE 3.5 mph - N/A   Clear
12:54 PM 75.2 °F 28.4 °F 18% 30.52 in 10.0 mi Calm Calm - N/A   Clear
1:14 PM 78.8 °F 28.4 °F 16% 30.51 in 10.0 mi East 5.8 mph - N/A   Clear
1:35 PM 78.8 °F 28.4 °F 16% 30.50 in 10.0 mi SE 8.1 mph 18.4 mph N/A   Clear
1:54 PM 80.6 °F 28.4 °F 15% 30.49 in 10.0 mi ESE 8.1 mph - N/A   Clear
2:15 PM 78.8 °F 26.6 °F 15% 30.48 in 10.0 mi SSE 8.1 mph - N/A   Scattered Clouds
2:35 PM 78.8 °F 23.0 °F 13% 30.47 in 10.0 mi SE 11.5 mph 18.4 mph N/A Thunderstorm Clear
2:55 PM 80.6 °F 24.8 °F 13% 30.46 in 10.0 mi SSE 12.7 mph 18.4 mph N/A   Clear
3:15 PM 80.6 °F 19.4 °F 10% 30.46 in 10.0 mi SE 5.8 mph 19.6 mph N/A   Scattered Clouds
3:35 PM 77.0 °F 21.2 °F 12% 30.46 in 10.0 mi Calm Calm - N/A   Scattered Clouds
3:55 PM 80.6 °F 28.4 °F 15% 30.45 in 10.0 mi ESE 12.7 mph 20.7 mph N/A   Mostly Cloudy
4:15 PM 73.4 °F 30.2 °F 20% 30.45 in 10.0 mi ESE 6.9 mph - N/A   Overcast
4:35 PM 73.4 °F 28.4 °F 19% 30.45 in 10.0 mi ESE 3.5 mph - N/A   Mostly Cloudy
4:55 PM 73.4 °F 30.2 °F 20% 30.45 in 10.0 mi North 3.5 mph - N/A   Scattered Clouds
5:15 PM 75.2 °F 32.0 °F 21% 30.44 in 10.0 mi WNW 4.6 mph - N/A   Scattered Clouds
5:35 PM 77.0 °F 28.4 °F 17% 30.44 in 10.0 mi Calm Calm - N/A   Mostly Cloudy
5:55 PM 71.6 °F 26.6 °F 19% 30.44 in 10.0 mi SSE 10.4 mph 16.1 mph N/A   Mostly Cloudy
6:15 PM 71.6 °F 26.6 °F 19% 30.44 in 10.0 mi SSE 12.7 mph 19.6 mph N/A   Scattered Clouds
6:35 PM 69.8 °F 28.4 °F 21% 30.44 in 10.0 mi SSE 11.5 mph 20.7 mph N/A   Scattered Clouds
6:55 PM 69.8 °F 28.4 °F 21% 30.44 in 10.0 mi SSE 16.1 mph 23.0 mph N/A   Mostly Cloudy
7:14 PM 69.8 °F 30.2 °F 23% 30.45 in 10.0 mi SSE 16.1 mph 21.9 mph N/A   Scattered Clouds
7:35 PM 69.8 °F 30.2 °F 23% 30.45 in 10.0 mi SSE 12.7 mph 21.9 mph N/A   Scattered Clouds
7:55 PM 68.0 °F 30.2 °F 24% 30.46 in 10.0 mi SSE 9.2 mph 21.9 mph N/A   Clear
8:15 PM 68.0 °F 32.0 °F 26% 30.47 in 10.0 mi SSE 13.8 mph 25.3 mph N/A   Scattered Clouds
8:35 PM 68.0 °F 32.0 °F 26% 30.48 in 10.0 mi WSW 8.1 mph 18.4 mph N/A   Mostly Cloudy
8:55 PM 66.2 °F 32.0 °F 28% 30.48 in 10.0 mi West 5.8 mph - N/A   Mostly Cloudy
9:15 PM 66.2 °F 32.0 °F 28% 30.48 in 10.0 mi Calm Calm - N/A   Scattered Clouds
9:35 PM 66.2 °F 32.0 °F 28% 30.49 in 10.0 mi Calm Calm - N/A   Clear
9:55 PM 62.6 °F 33.8 °F 34% 30.49 in 10.0 mi Calm Calm - N/A   Clear
10:15 PM 64.4 °F 33.8 °F 32% 30.48 in 10.0 mi Calm Calm - N/A   Clear
10:35 PM 64.4 °F 32.0 °F 30% 30.48 in 10.0 mi Calm Calm - N/A   Clear
10:55 PM 64.4 °F 32.0 °F 30% 30.49 in 10.0 mi Calm Calm - N/A   Clear
11:15 PM 64.4 °F 32.0 °F 30% 30.48 in 10.0 mi Calm Calm - N/A   Scattered Clouds
11:35 PM 62.6 °F 33.8 °F 34% 30.48 in 10.0 mi Calm Calm - N/A   Mostly Cloudy
11:55 PM 62.6 °F 33.8 °F 34% 30.47 in 10.0 mi SSE 9.2 mph - N/A   Mostly Cloudy